This is the latest recevied weather packets stored in our database for station/object WB6ANP. If no packets are shown the sender has not sent any weather packets the latest 10 day(s).
| Time | Temp. | Humidity | Pressure | Rain* | Wind** | Luminosity | Snow |
|---|---|---|---|---|---|---|---|
| 1777741130 | 21.67° C | 38% | 1022.7 hPa | 0 mm | - | 877 W/m² | - |
| 1777740828 | 21.67° C | 39% | 1022.7 hPa | 0 mm | - | 876 W/m² | - |
| 1777740524 | 21.11° C | 43% | 1022.6 hPa | 0 mm | - | 865 W/m² | - |
| 1777740221 | 21.11° C | 41% | 1022.7 hPa | 0 mm | - | 852 W/m² | - |
| 1777739917 | 21.67° C | 41% | 1022.7 hPa | 0 mm | - | 66 W/m² | - |
| 1777739614 | 21.11° C | 45% | 1022.7 hPa | 0 mm | - | 838 W/m² | - |
| 1777739312 | 20.56° C | 49% | 1022.7 hPa | 0 mm | - | 828 W/m² | - |
| 1777739008 | 20° C | 46% | 1022.5 hPa | 0 mm | - | 811 W/m² | - |
| 1777738705 | 20° C | 46% | 1022.6 hPa | 0 mm | - | 785 W/m² | - |
| 1777738401 | 20.56° C | 45% | 1022.7 hPa | 0 mm | - | 787 W/m² | - |
| 1777738099 | 20.56° C | 43% | 1022.6 hPa | 0 mm | - | 774 W/m² | - |
| 1777737798 | 20.56° C | 47% | 1022.6 hPa | 0 mm | - | 766 W/m² | - |
| 1777737497 | 20.56° C | 45% | 1022.6 hPa | 0 mm | - | 755 W/m² | - |
| 1777737194 | 20.56° C | 52% | 1022.5 hPa | 0 mm | - | 738 W/m² | - |
| 1777736889 | 20° C | 50% | 1022.5 hPa | 0 mm | - | 721 W/m² | - |
| 1777736276 | 19.44° C | 53% | 1022.4 hPa | 0 mm | - | 693 W/m² | - |
| 1777735972 | 19.44° C | 53% | 1022.6 hPa | 0 mm | - | 682 W/m² | - |
| 1777735669 | 18.89° C | 59% | 1022.5 hPa | 0 mm | - | 665 W/m² | - |
| 1777735367 | 18.89° C | 56% | 1022.4 hPa | 0 mm | - | 646 W/m² | - |
| 1777735064 | 18.89° C | 55% | 1022.7 hPa | 0 mm | - | 635 W/m² | - |
| 1777734761 | 18.89° C | 56% | 1022.3 hPa | 0 mm | - | 617 W/m² | - |
| 1777734459 | 18.89° C | 61% | 1022.4 hPa | 0 mm | - | 602 W/m² | - |
| 1777734156 | 18.33° C | 61% | 1022.3 hPa | 0 mm | - | 585 W/m² | - |
| 1777733852 | 17.78° C | 64% | 1022.3 hPa | 0 mm | - | 569 W/m² | - |
| 1777733548 | 17.78° C | 64% | 1022.1 hPa | 0 mm | - | 546 W/m² | - |
* Rain latest hour (hover to see other rain measurements)
** Current wind speed in m/s (hover to see current wind gust speed)